METEOR-M 2 1 40069U 14037A 21056.87626076 -.00000033 00000-0 39855-5 0 9992 2 40069 98.4750 90.4356 0004381 266.4723 93.5955 14.20681117344195 MKA-PN 2 (RELEC) 1 40070U 14037B 21056.52731814 .00000070 00000-0 26327-4 0 9992 2 40070 98.0438 91.3002 0136499 321.2474 37.8991 14.52180927351617 DX1 1 40071U 14037C 21056.80661839 .00000170 00000-0 29252-4 0 9994 2 40071 98.4589 255.2925 0009471 51.3176 308.8885 14.81456635358763 SKYSAT-2 1 40072U 14037D 21056.39988063 .00000178 00000-0 30322-4 0 9998 2 40072 98.4594 254.7034 0007350 52.0390 308.1484 14.81376867358615 DUMMY SAT 1 40073U 14037E 21056.80098326 .00000017 00000-0 98263-5 0 9990 2 40073 98.4634 253.7265 0007063 58.5440 301.6465 14.80686885358669 UKUBE-1 1 40074U 14037F 21056.55803828 .00000453 00000-0 61007-4 0 9993 2 40074 98.4403 265.8627 0005076 37.0568 323.1029 14.84463913359301 AISSAT 2 1 40075U 14037G 21056.54759179 .00000181 00000-0 29915-4 0 9992 2 40075 98.4515 260.2298 0006711 60.8179 299.3724 14.82613947358989 TECHDEMOSAT-1 (TDS-1) 1 40076U 14037H 21056.51742720 .00000516 00000-0 68127-4 0 9994 2 40076 98.4456 257.4391 0007300 160.0248 200.1252 14.84658134358920 FREGAT DEB 1 40078U 14037K 21056.51025052 .00000086 00000-0 29927-4 0 9995 2 40078 98.0427 91.4397 0136438 320.0244 39.0969 14.52276125351633